This is the latest recevied weather packets stored in our database for station/object AC1IX. If no packets are shown the sender has not sent any weather packets the latest 10 day(s).
| Time | Temp. | Humidity | Pressure | Rain* | Wind** | Luminosity | Snow |
|---|---|---|---|---|---|---|---|
| 1778096538 | 14.44° C | 99% | 1006.2 hPa | 1.27 mm | - | 55 W/m² | - |
| 1778096236 | 15° C | 99% | 1006.4 hPa | 0 mm | - | 43 W/m² | - |
| 1778095933 | 14.44° C | 99% | 1006.2 hPa | 0 mm | - | 58 W/m² | - |
| 1778095629 | 14.44° C | 99% | 1006.4 hPa | 0 mm | - | 39 W/m² | - |
| 1778095326 | 14.44° C | 99% | 1006.2 hPa | 0 mm | - | 45 W/m² | - |
| 1778095023 | 14.44° C | 99% | 1006.1 hPa | 0 mm | - | 42 W/m² | - |
| 1778094719 | 15° C | 99% | 1006.3 hPa | 0 mm | - | 45 W/m² | - |
| 1778094417 | 14.44° C | 99% | 1006.5 hPa | 0 mm | - | 49 W/m² | - |
| 1778094113 | 14.44° C | 99% | 1006.5 hPa | 0 mm | - | 69 W/m² | - |
| 1778093810 | 15° C | 99% | 1006.7 hPa | 1.78 mm | - | 58 W/m² | - |
| 1778093506 | 15° C | 99% | 1006.5 hPa | 1.78 mm | - | 27 W/m² | - |
| 1778093204 | 15° C | 99% | 1006.7 hPa | 1.78 mm | - | 51 W/m² | - |
| 1778092901 | 15° C | 99% | 1006.4 hPa | 3.05 mm | - | 41 W/m² | - |
| 1778092598 | 15° C | 99% | 1006.6 hPa | 3.05 mm | - | 66 W/m² | - |
| 1778092293 | 15° C | 99% | 1006.6 hPa | 1.78 mm | - | 87 W/m² | - |
| 1778091992 | 15° C | 99% | 1006.6 hPa | 0 mm | - | 59 W/m² | - |
| 1778091688 | 15° C | 99% | 1006.5 hPa | 1.27 mm | - | 107 W/m² | - |
| 1778091386 | 15° C | 99% | 1006.7 hPa | 1.27 mm | - | 98 W/m² | - |
| 1778091083 | 15° C | 99% | 1006.6 hPa | 1.78 mm | - | 90 W/m² | - |
| 1778090780 | 14.44° C | 99% | 1006.6 hPa | 3.05 mm | - | 108 W/m² | - |
| 1778090476 | 15° C | 99% | 1006.5 hPa | 3.05 mm | - | 96 W/m² | - |
| 1778090173 | 15° C | 99% | 1006.4 hPa | 1.78 mm | - | 108 W/m² | - |
| 1778089869 | 14.44° C | 99% | 1006.9 hPa | 1.27 mm | - | 90 W/m² | - |
| 1778089568 | 14.44° C | 99% | 1006.7 hPa | 3.05 mm | - | 93 W/m² | - |
| 1778089264 | 14.44° C | 99% | 1007.2 hPa | 3.05 mm | - | 66 W/m² | - |
* Rain latest hour (hover to see other rain measurements)
** Current wind speed in m/s (hover to see current wind gust speed)